EW4462 Weather Reports


Display with metric or nautical units.
time (UTC)temp
F
wind
direction
speed
MPH
gust
MPH
rain 1hr
in
rain 24hr
in
rain mn
in
humidity
%
barometer
mb
20260503180320 66 136 0.0 0.0 0.00 0.00 0.00 71 1015.5
20260503175323 66 81 0.0 1.0 0.00 0.00 0.00 72 1015.4
20260503174306 67 86 0.0 0.0 0.00 0.00 0.00 71 1015.5
20260503173259 67 109 0.0 0.0 0.00 0.00 0.00 70 1015.4
20260503171216 66 91 0.0 0.0 0.00 0.00 0.00 71 1015.2
20260503170232 66 109 0.0 0.0 0.00 0.00 0.00 73 1015.3
20260503130828 60 149 0.0 0.0 0.00 0.00 0.00 86 1014.2
20260503110618 61 124 0.0 0.0 0.00 0.00 0.00 86 1013.6
20260503080853 61 94 0.0 0.0 0.00 0.00 0.00 86 1014.4
20260503072730 62 94 0.0 0.0 0.00 0.00 0.00 86 1014.8
20260503071730 62 94 0.0 0.0 0.00 0.00 0.00 86 1014.8
20260503070700 62 96 0.0 0.0 0.00 0.00 0.00 86 1014.6
20260503054611 62 100 0.0 0.0 0.00 0.00 0.00 86 1014.5
20260503053630 62 100 0.0 0.0 0.00 0.00 0.00 86 1014.4
20260503052615 62 100 0.0 0.0 0.00 0.00 0.00 86 1014.3
20260503051554 62 100 0.0 0.0 0.00 0.00 0.00 85 1014.2
20260503045417 62 100 0.0 0.0 0.00 0.00 0.00 85 1013.6
20260503043212 62 100 0.0 0.0 0.00 0.00 0.00 85 1013.5
20260503042203 62 100 0.0 0.0 0.00 0.00 0.00 85 1013.0
20260503041147 62 100 0.0 0.0 0.00 0.00 0.00 85 1012.9
20260503040154 62 100 0.0 0.0 0.00 0.00 0.00 84 1012.8
20260503033959 62 100 0.0 0.0 0.00 0.00 0.00 84 1012.9
20260503032925 62 101 0.0 0.0 0.00 0.00 0.00 84 1012.7
20260503031914 62 101 0.0 0.0 0.00 0.00 0.00 84 1012.6
20260503025812 62 98 0.0 0.0 0.00 0.00 0.00 84 1012.4
20260503021421 63 119 0.0 0.0 0.00 0.00 0.00 83 1012.3
20260503020442 63 89 0.0 0.0 0.00 0.00 0.00 82 1012.3
20260503015458 63 83 0.0 0.0 0.00 0.00 0.00 82 1012.3
20260503014432 64 122 0.0 0.0 0.00 0.00 0.00 81 1012.3
20260503013405 64 98 0.0 3.0 0.00 0.00 0.00 81 1012.4
20260503012341 64 92 0.0 0.0 0.00 0.00 0.00 81 1012.1
20260503011402 64 121 0.0 0.0 0.00 0.00 0.00 81 1012.1
20260503010337 64 122 0.0 0.0 0.00 0.00 0.00 81 1012.1
20260503005315 64 144 0.0 0.0 0.00 0.00 0.00 81 1012.2
20260503003204 65 157 0.0 0.0 0.00 0.00 0.00 80 1012.2
20260503001112 66 159 0.0 0.0 0.00 0.00 0.00 79 1012.1
20260503000125 66 157 0.0 0.0 0.00 0.00 0.00 78 1012.1
20260502235122 67 157 0.0 0.0 0.00 0.00 0.00 78 1012.1
20260502234127 67 162 0.0 1.0 0.00 0.00 0.00 78 1012.2
20260502233148 67 159 0.0 0.0 0.00 0.00 0.00 78 1012.1
20260502232135 66 96 0.0 0.0 0.00 0.00 0.00 78 1012.2
20260502231117 66 155 0.0 0.0 0.00 0.00 0.00 79 1012.2
20260502225008 67 112 0.0 0.0 0.00 0.00 0.00 78 1012.3
20260502224030 67 129 0.0 0.0 0.00 0.00 0.00 77 1012.5
20260502223055 67 89 0.0 0.0 0.00 0.00 0.00 77 1012.8
20260502222108 68 168 0.0 0.0 0.00 0.00 0.00 76 1013.1
20260502221039 68 77 0.0 0.0 0.00 0.00 0.00 75 1013.2
20260502220012 69 81 0.0 0.0 0.00 0.00 0.00 75 1013.4
20260502214941 69 101 0.0 0.0 0.00 0.00 0.00 75 1013.4
20260502213955 69 99 0.0 0.0 0.00 0.00 0.00 75 1013.5
20260502212949 70 94 0.0 3.0 0.00 0.00 0.00 73 1013.7
20260502211929 70 88 0.0 3.0 0.00 0.00 0.00 73 1013.8
20260502210927 71 101 0.0 0.0 0.00 0.00 0.00 73 1013.6
20260502204718 70 112 0.0 0.0 0.00 0.00 0.00 74 1013.8
20260502203726 70 101 0.0 0.0 0.00 0.00 0.00 74 1014.0
20260502202655 71 115 0.0 0.0 0.00 0.00 0.00 74 1013.9
20260502201713 70 113 0.0 0.0 0.00 0.00 0.00 75 1013.6
20260502200738 69 53 0.0 0.0 0.00 0.00 0.00 76 1013.8
20260502194622 69 90 0.0 4.0 0.00 0.00 0.00 77 1014.3
20260502193557 69 120 0.0 4.0 0.00 0.00 0.00 76 1014.2
20260502191503 69 89 0.0 0.0 0.00 0.00 0.00 76 1014.6
20260502190526 69 111 0.0 0.0 0.00 0.00 0.00 76 1014.7
20260502185546 70 110 0.0 5.0 0.00 0.00 0.00 75 1014.8
20260502184540 70 80 0.0 1.0 0.00 0.00 0.00 76 1014.7
20260502183549 69 111 0.0 0.0 0.00 0.00 0.00 76 1014.9
20260502182547 70 88 0.0 0.0 0.00 0.00 0.00 75 1015.0
20260502181543 69 95 0.0 1.0 0.00 0.00 0.00 73 1015.2